Weather History for Blakely, GA

Change the Weather History Date:

Monday, December 3, 2012

  Actual Average (KDHN) Record (KDHN)
Temperature  
Mean Temperature 64 °F 54 °F  
Max Temperature 78 °F 66 °F 80 °F (1955)
Min Temperature 50 °F 42 °F 27 °F (1960)
Degree Days  
Heating Degree Days 1 12  
Month to date heating degree days 34  
Since 1 July heating degree days 311  
Growing Degree Days 14 (Base 50)    
Moisture  
Dew Point 54 °F    
Average Humidity 83    
Maximum Humidity 100    
Minimum Humidity 39    
Precipitation  
Precipitation 0.00 in 0.19 in 3.87 in (1941)
Month to date precipitation 0.58  
Year to date precipitation 50.16  
Sea Level Pressure  
Sea Level Pressure 30.27 in    
Wind  
Wind Speed 1 mph (SSW)    
Max Wind Speed 10 mph    
Max Gust Speed -    
Visibility 10 miles    
Events      
T = Trace of Precipitation, MM = Missing Value Source: NWS Daily Summary

Daily Weather History Graph

Daily Weather History Graph

Search for Another Location

Airport:

Trip Planner

Search our weather history database for the weather conditions in past years. The results will help you decide how hot, cold, wet, or windy it might be!

Date:

Astronomy

Dec. 03, 2012 Rise Set
Actual Time 7:22 AM EST 5:36 PM EST
Civil Twilight 6:56 AM EST 6:02 PM EST
Nautical Twilight 6:26 AM EST 6:32 PM EST
Astronomical Twilight 5:56 AM EST 7:02 PM EST
Moon 10:12 PM EST (12/3) 10:54 AM EST (12/3)
Length of Visible Light 11h 06m
Length of Day
10h 13m
Waning Gibbous, 78% of the Moon is Illuminated
Dec 3
Waning Gibbous
Dec 6
Last Quarter
Dec 13
New
Dec 20
First Quarter
Dec 28
Full

Hourly Weather History & Observations

Time (EST) Temp. Dew Point Humidity Pressure Visibility Wind Dir Wind Speed Gust Speed Precip Events Conditions
12:15 AM 51.8 °F 51.8 °F 100% 30.27 in 10.0 mi Calm Calm - N/A   Scattered Clouds
12:35 AM 51.8 °F 51.8 °F 100% 30.27 in 10.0 mi Calm Calm - N/A   Scattered Clouds
12:55 AM 51.8 °F 51.8 °F 100% 30.27 in 10.0 mi Calm Calm - N/A   Clear
1:15 AM 51.8 °F 51.8 °F 100% 30.27 in 10.0 mi Calm Calm - N/A   Clear
1:35 AM 51.8 °F 51.8 °F 100% 30.27 in 10.0 mi Calm Calm - N/A   Clear
1:55 AM 50.0 °F 50.0 °F 100% 30.27 in 7.0 mi Calm Calm - N/A   Clear
2:15 AM 50.0 °F 50.0 °F 100% 30.27 in 7.0 mi Calm Calm - N/A   Clear
2:35 AM 50.0 °F 50.0 °F 100% 30.28 in 10.0 mi Calm Calm - N/A   Clear
2:55 AM 50.0 °F 50.0 °F 100% 30.28 in 7.0 mi Calm Calm - N/A   Scattered Clouds
3:15 AM 50.0 °F 50.0 °F 100% 30.28 in 10.0 mi Calm Calm - N/A   Scattered Clouds
3:35 AM 50.0 °F 50.0 °F 100% 30.28 in 7.0 mi Calm Calm - N/A   Scattered Clouds
3:55 AM 50.0 °F 50.0 °F 100% 30.28 in 10.0 mi Calm Calm - N/A   Mostly Cloudy
4:15 AM 50.0 °F 50.0 °F 100% 30.27 in 10.0 mi Calm Calm - N/A   Mostly Cloudy
4:35 AM 50.0 °F 50.0 °F 100% 30.27 in 10.0 mi Calm Calm - N/A   Overcast
4:55 AM 50.0 °F 50.0 °F 100% 30.28 in 10.0 mi Calm Calm - N/A   Overcast
5:15 AM 50.0 °F 50.0 °F 100% 30.27 in 10.0 mi Calm Calm - N/A   Overcast
5:35 AM 50.0 °F 50.0 °F 100% 30.27 in 10.0 mi Calm Calm - N/A   Mostly Cloudy
5:55 AM 51.8 °F 51.8 °F 100% 30.28 in 10.0 mi Calm Calm - N/A   Mostly Cloudy
6:15 AM 51.8 °F 51.8 °F 100% 30.28 in 10.0 mi Calm Calm - N/A   Mostly Cloudy
6:35 AM 51.8 °F 51.8 °F 100% 30.29 in 10.0 mi Calm Calm - N/A   Mostly Cloudy
6:55 AM 50.0 °F 50.0 °F 100% 30.29 in 10.0 mi Calm Calm - N/A   Mostly Cloudy
7:15 AM 51.8 °F 51.8 °F 100% 30.30 in 10.0 mi Calm Calm - N/A   Overcast
7:35 AM 51.8 °F 51.8 °F 100% 30.30 in 10.0 mi Calm Calm - N/A   Overcast
7:55 AM 51.8 °F 51.8 °F 100% 30.31 in 10.0 mi Calm Calm - N/A   Overcast
8:15 AM 53.6 °F 53.6 °F 100% 30.32 in 10.0 mi Calm Calm - N/A   Overcast
8:35 AM 55.4 °F 55.4 °F 100% 30.32 in 10.0 mi Calm Calm - N/A   Overcast
8:55 AM 55.4 °F 55.4 °F 100% 30.32 in 10.0 mi Calm Calm - N/A   Overcast
9:15 AM 59.0 °F 59.0 °F 100% 30.32 in 10.0 mi Calm Calm - N/A   Overcast
9:35 AM 60.8 °F 59.0 °F 94% 30.32 in 10.0 mi Calm Calm - N/A   Overcast
10:15 AM 66.2 °F 60.8 °F 83% 30.33 in 10.0 mi Calm Calm - N/A   Mostly Cloudy
10:35 AM 68.0 °F 60.8 °F 78% 30.33 in 10.0 mi Calm Calm - N/A   Mostly Cloudy
10:55 AM 69.8 °F 62.6 °F 78% 30.32 in 10.0 mi Calm Calm - N/A   Mostly Cloudy
11:15 AM 73.4 °F 62.6 °F 69% 30.31 in 10.0 mi SSW 6.9 mph - N/A   Mostly Cloudy
11:35 AM 75.2 °F 62.6 °F 65% 30.30 in 10.0 mi SSW 6.9 mph - N/A   Scattered Clouds
11:55 AM 77.0 °F 60.8 °F 57% 30.30 in 10.0 mi South 8.1 mph - N/A   Scattered Clouds
12:15 PM 77.0 °F 60.8 °F 57% 30.29 in 10.0 mi South 9.2 mph - N/A   Clear
12:35 PM 78.8 °F 55.4 °F 44% 30.28 in 10.0 mi South 8.1 mph - N/A   Clear
12:55 PM 78.8 °F 53.6 °F 42% 30.27 in 10.0 mi South 8.1 mph - N/A   Mostly Cloudy
1:15 PM 78.8 °F 51.8 °F 39% 30.26 in 10.0 mi SW 10.4 mph - N/A   Mostly Cloudy
1:35 PM 78.8 °F 53.6 °F 42% 30.26 in 10.0 mi South 5.8 mph - N/A   Scattered Clouds
1:55 PM 77.0 °F 53.6 °F 44% 30.25 in 10.0 mi SW 4.6 mph - N/A   Scattered Clouds
2:15 PM 77.0 °F 53.6 °F 44% 30.24 in 10.0 mi South 6.9 mph - N/A   Mostly Cloudy
2:35 PM 77.0 °F 55.4 °F 47% 30.24 in 10.0 mi SSW 5.8 mph - N/A   Scattered Clouds
2:55 PM 78.8 °F 55.4 °F 44% 30.23 in 10.0 mi SW 5.8 mph - N/A   Clear
3:15 PM 75.2 °F 55.4 °F 50% 30.23 in 10.0 mi Calm Calm - N/A   Clear
3:35 PM 78.8 °F 55.4 °F 44% 30.23 in 10.0 mi South 4.6 mph - N/A   Mostly Cloudy
3:55 PM 78.8 °F 55.4 °F 44% 30.23 in 10.0 mi SSW 3.5 mph - N/A   Overcast
4:15 PM 77.0 °F 55.4 °F 47% 30.23 in 10.0 mi SW 3.5 mph - N/A   Overcast
4:35 PM 77.0 °F 55.4 °F 47% 30.23 in 10.0 mi Calm Calm - N/A   Overcast
4:55 PM 75.2 °F 57.2 °F 53% 30.23 in 10.0 mi Calm Calm - N/A   Mostly Cloudy
5:15 PM 71.6 °F 59.0 °F 64% 30.23 in 10.0 mi Calm Calm - N/A   Scattered Clouds
5:35 PM 69.8 °F 59.0 °F 68% 30.24 in 10.0 mi Calm Calm - N/A   Scattered Clouds
5:55 PM 68.0 °F 59.0 °F 73% 30.24 in 10.0 mi Calm Calm - N/A   Mostly Cloudy
6:15 PM 64.4 °F 59.0 °F 83% 30.24 in 10.0 mi Calm Calm - N/A   Scattered Clouds
6:35 PM 62.6 °F 57.2 °F 82% 30.25 in 10.0 mi Calm Calm - N/A   Scattered Clouds
6:55 PM 60.8 °F 57.2 °F 88% 30.25 in 10.0 mi Calm Calm - N/A   Scattered Clouds
7:15 PM 60.8 °F 57.2 °F 88% 30.25 in 10.0 mi Calm Calm - N/A   Scattered Clouds
7:35 PM 59.0 °F 55.4 °F 88% 30.25 in 10.0 mi Calm Calm - N/A   Scattered Clouds
7:55 PM 59.0 °F 55.4 °F 88% 30.25 in 10.0 mi Calm Calm - N/A   Scattered Clouds
8:15 PM 59.0 °F 55.4 °F 88% 30.26 in 10.0 mi Calm Calm - N/A   Scattered Clouds
8:35 PM 57.2 °F 55.4 °F 94% 30.26 in 10.0 mi Calm Calm - N/A   Scattered Clouds
8:55 PM 55.4 °F 55.4 °F 100% 30.26 in 10.0 mi Calm Calm - N/A   Scattered Clouds
9:15 PM 55.4 °F 53.6 °F 94% 30.26 in 10.0 mi Calm Calm - N/A   Scattered Clouds
9:35 PM 55.4 °F 53.6 °F 94% 30.25 in 10.0 mi Calm Calm - N/A   Scattered Clouds
9:55 PM 53.6 °F 53.6 °F 100% 30.26 in 10.0 mi Calm Calm - N/A   Clear
10:15 PM 53.6 °F 53.6 °F 100% 30.26 in 10.0 mi Calm Calm - N/A   Clear
10:35 PM 53.6 °F 53.6 °F 100% 30.26 in 10.0 mi Calm Calm - N/A   Clear
10:55 PM 51.8 °F 51.8 °F 100% 30.27 in 10.0 mi Calm Calm - N/A   Clear
11:15 PM 51.8 °F 51.8 °F 100% 30.27 in 7.0 mi Calm Calm - N/A   Clear
11:35 PM 51.8 °F 51.8 °F 100% 30.27 in 10.0 mi Calm Calm - N/A   Clear
11:55 PM 51.8 °F 51.8 °F 100% 30.27 in 10.0 mi Calm Calm - N/A   Clear